EHI
10 7 2 0 0 0 0 0 0 0 0 0 0 0 0 0 0 0 0 0 1 1 2 3 3 2 1 0 0 0 1 2 1 0 0 1 2 2 1 0 0 0 0 0 0 0 0 0 0
7 4 1 0 0 0 0 0 0 0 0 0 0 0 0 0 0 0 0 1 2 2 3 3 3 2 1 0 0 0 1 2 1 0 0 0 1 1 0 0 0 0 0 0 0 0 0 0 0
4 2 0 0 0 0 0 0 0 0 0 0 0 0 0 0 0 0 1 2 3 3 3 3 3 2 0 0 0 0 1 1 1 0 0 0 0 0 0 0 0 0 0 0 0 0 0 0 0
3 1 0 0 0 0 0 0 0 0 0 0 0 0 0 0 0 0 1 3 3 3 3 3 3 2 1 0 0 0 0 0 0 0 0 0 0 0 0 0 0 0 0 0 0 0 0 0 0
1 0 0 0 0 0 0 0 0 0 0 0 0 0 0 0 1 1 2 3 3 3 3 3 3 2 1 0 0 0 0 0 0 0 0 0 0 0 0 0 0 0 0 0 0 0 0 0 0
0 0 0 0 0 0 0 0 0 0 0 0 0 0 0 0 1 2 3 3 3 3 3 3 3 2 1 0 0 0 0 0 0 0 0 0 0 0 0 0 0 0 0 0 0 0 0 0 0
0 0 0 0 0 0 0 0 0 0 0 0 0 0 0 0 1 3 3 3 3 3 3 2 2 1 0 0 0 0 0 0 0 0 0 0 0 0 0 0 0 0 0 0 0 0 0 0 1
0 0 0 0 0 0 0 0 0 0 0 0 0 0 0 1 2 3 3 3 3 3 3 2 1 0 0 0 0 0 0 0 0 0 0 0 0 0 0 0 0 0 0 0 0 0 0 0 1
0 0 0 0 0 0 0 0 0 0 0 0 0 0 0 2 3 4 3 3 3 3 3 1 0 0 0 0 0 0 0 0 0 0 0 0 0 0 0 0 0 0 0 0 0 0 0 0 1
1 0 0 0 0 0 0 0 0 0 0 0 0 0 1 4 5 4 3 3 3 3 2 1 0 0 0 0 0 0 0 0 0 0 0 0 0 0 0 0 0 0 0 0 0 0 0 0 0
2 1 0 0 0 0 0 0 0 0 0 0 0 1 2 5 6 5 3 3 3 3 2 1 0 0 0 0 0 0 0 0 0 0 0 0 0 0 0 0 0 0 0 0 0 0 0 0 0
1 0 0 0 0 0 0 0 0 0 0 0 0 1 2 4 5 5 4 3 3 3 2 1 1 1 1 0 0 0 0 0 0 0 0 0 0 0 0 0 0 0 0 0 0 0 0 0 0
0 0 0 0 0 0 0 0 0 0 0 0 0 0 1 2 4 6 5 4 4 3 1 1 2 2 1 0 0 0 0 0 0 0 0 0 0 0 0 0 0 0 0 0 0 0 0 0 0
0 0 0 0 0 0 0 0 0 0 0 0 0 0 0 0 2 4 4 4 5 3 1 2 3 2 1 0 0 0 0 0 0 0 0 0 0 0 0 0 0 0 0 0 0 0 0 0 0
0 0 0 0 0 0 0 0 0 0 0 0 0 0 0 0 1 3 4 5 5 3 2 2 2 1 0 0 0 0 0 0 0 0 0 0 0 0 0 0 0 0 0 0 0 0 0 0 0
0 0 0 0 0 0 0 0 0 0 0 0 0 0 0 0 1 2 3 4 3 2 1 1 1 0 0 0 0 0 0 0 0 0 0 0 0 0 0 0 0 0 0 0 0 0 0 0 0
0 0 0 0 0 0 0 0 0 0 0 0 0 0 0 0 0 1 2 2 1 0 0 0 0 0 0 0 0 0 0 0 0 0 0 0 0 0 0 0 0 0 0 0 0 0 0 0 0
0 0 0 0 0 0 0 0 0 0 0 0 0 0 0 0 0 0 0 0 0 0 0 0 0 0 0 0 0 0 0 0 0 0 0 0 0 0 0 0 0 0 0 0 0 0 0 0 0
0 0 0 0 0 0 0 0 0 0 0 0 0 0 0 0 0 0 0 0 0 0 0 0 0 0 0 0 0 0 0 0 0 0 0 0 0 0 0 0 0 0 0 0 0 0 0 0 0
0 0 0 0 0 0 0 0 0 0 0 0 0 0 0 0 0 0 0 0 0 0 0 0 0 0 0 0 0 0 0 0 0 0 0 0 0 0 0 0 0 0 0 0 0 0 0 0 0
0 0 0 0 0 0 0 0 0 0 0 0 0 0 0 0 0 0 0 0 0 0 0 0 0 0 0 0 0 0 0 0 0 0 0 0 0 0 0 0 0 0 0 0 0 0 0 0 0
0 0 0 0 0 0 0 0 0 0 0 0 0 0 0 0 0 0 0 0 0 0 0 0 0 0 0 0 0 0 0 0 0 0 0 0 0 0 0 0 0 0 0 0 0 0 0 0 0
0 0 0 0 0 0 0 0 0 0 0 0 0 0 0 0 0 0 0 0 0 0 0 0 0 0 0 0 0 0 0 0 0 0 0 0 0 0 0 0 0 0 0 0 0 0 0 0 0
0 0 0 0 0 0 0 0 0 0 0 0 0 0 0 0 0 0 0 0 0 0 0 0 0 0 0 0 0 0 0 0 0 0 0 0 0 0 0 0 0 0 0 0 0 0 0 0 0
0 0 0 0 0 0 0 0 0 0 0 0 0 0 0 0 0 0 0 0 0 0 0 0 0 0 0 0 0 0 0 0 0 0 0 0 0 0 0 0 0 0 0 0 0 0 0 0 0
0 0 0 0 0 0 0 0 0 0 0 0 0 0 0 0 0 0 0 0 0 0 0 0 0 0 0 0 0 0 0 0 0 0 0 0 0 0 0 0 0 0 0 0 0 0 0 0 0
0 0 0 0 0 0 0 0 0 0 0 0 0 0 0 0 0 0 0 0 0 0 0 0 0 0 0 0 0 0 0 0 0 0 0 0 0 0 0 0 0 0 0 0 0 0 0 0 0
0 0 0 0 0 0 0 0 0 0 0 0 0 0 0 0 0 0 0 0 0 0 0 0 0 0 0 0 0 0 0 0 0 0 0 0 0 0 0 0 0 0 0 0 0 0 0 0 0
0 0 0 0 0 0 0 0 0 0 0 0 0 0 0 0 0 0 0 0 0 0 0 0 0 0 0 0 0 0 0 0 0 0 0 0 0 0 0 0 0 0 0 0 0 0 0 0 0
0 0 0 0 0 0 0 0 0 0 0 0 0 0 0 0 0 0 0 0 0 0 0 0 0 0 0 0 0 0 0 0 0 0 0 0 0 0 0 0 0 0 0 0 0 0 0 0 0
Wind_Speed
2 4 3 3 4 3 2 2 1 1 1 1 1 3 4 3 2 2 1 6 7 6 5 6 9 9 8 8 7 7 6 6 6 6 5 5 5 5 4 4 3 3 3 3 2 2 2 2 2
4 3 3 3 4 1 3 2 1 2 2 2 3 3 3 2 2 4 2 5 7 7 5 6 9 9 8 8 7 6 6 6 6 5 5 5 4 4 4 4 3 3 3 2 2 2 2 2 2
4 2 3 3 2 3 3 2 2 1 2 2 2 3 2 2 3 4 4 8 7 6 5 6 10 9 8 8 7 6 6 5 5 4 4 4 3 3 3 3 3 3 3 3 3 3 2 2 2
3 3 3 2 2 4 3 2 1 0 1 2 3 2 1 1 5 5 8 9 7 5 5 6 10 9 8 7 6 5 5 4 4 3 3 3 3 3 3 3 3 3 3 3 3 3 3 3 2
3 3 3 1 3 3 3 2 2 1 1 2 3 2 1 2 4 8 9 9 8 6 4 5 9 9 8 6 5 5 4 3 3 2 2 2 2 3 3 3 3 3 3 3 4 4 4 4 4
3 3 2 1 4 4 2 0 1 1 2 3 4 3 0 1 6 8 8 7 7 6 5 4 8 8 7 6 5 4 3 2 2 1 1 2 2 3 3 4 4 4 4 4 4 4 4 4 4
3 3 2 2 3 3 1 1 1 1 2 4 5 4 1 2 4 7 7 6 5 4 4 3 3 4 6 5 4 4 3 2 1 1 1 2 3 3 4 5 5 5 4 4 4 5 5 5 4
4 4 1 1 2 3 1 1 0 2 2 2 5 6 5 5 5 6 5 4 3 3 3 3 2 1 1 1 3 3 2 1 1 1 2 2 4 4 5 5 5 5 4 4 5 5 5 5 5
3 3 2 3 3 3 1 1 1 1 2 2 2 4 4 8 9 7 4 2 2 3 2 3 2 2 1 1 1 1 1 1 2 2 3 4 3 3 3 4 5 4 4 4 5 5 5 5 5
3 3 4 3 3 2 2 1 1 1 1 0 0 1 5 10 10 9 7 6 6 5 4 3 3 3 2 1 1 1 1 2 2 1 2 2 2 2 3 5 6 6 5 5 5 5 5 4 2
3 4 2 2 2 1 2 2 0 3 2 4 5 5 8 9 9 9 8 7 7 5 4 4 4 3 2 1 1 1 1 1 1 2 1 1 2 2 2 2 3 4 5 3 4 4 2 2 2
2 2 2 2 1 1 1 1 1 3 6 5 5 7 9 11 11 11 10 7 5 4 5 4 4 3 2 2 1 1 1 0 1 1 1 1 1 1 1 1 2 2 2 2 2 2 2 2 2
2 2 2 2 1 1 2 2 2 5 5 1 4 7 9 10 9 8 7 6 5 5 5 4 4 4 3 2 1 1 1 0 0 1 1 1 0 0 1 1 1 1 1 1 2 2 2 2 2
3 2 2 2 2 1 2 3 2 5 2 3 6 8 8 8 8 6 6 6 6 6 5 4 4 4 4 2 2 1 1 1 1 0 1 0 0 0 0 1 1 1 1 1 1 1 1 2 2
1 1 2 2 1 2 1 3 4 3 2 4 6 7 6 6 6 8 8 8 7 6 5 5 4 4 4 3 2 1 1 1 1 0 0 0 0 0 0 1 1 2 2 2 1 1 1 1 1
2 2 1 3 1 2 3 4 5 2 3 3 4 4 5 6 6 6 6 6 6 6 6 5 5 4 4 3 2 1 1 1 0 0 0 1 0 0 0 1 1 2 1 1 1 1 1 1 1
2 1 2 4 1 1 2 5 4 2 4 4 4 4 4 4 4 4 5 7 7 7 6 5 5 5 4 3 2 2 1 1 0 1 1 1 1 0 0 1 1 2 1 1 1 1 1 1 2
2 2 2 3 2 1 2 5 5 2 4 4 4 4 4 5 5 4 5 6 6 6 6 5 5 4 3 2 2 2 2 1 1 1 1 1 1 1 0 1 1 1 1 1 1 1 1 1 1
3 2 3 4 3 1 3 5 6 3 3 4 4 4 5 5 3 3 5 6 6 6 6 5 5 4 3 2 2 1 0 1 1 1 1 1 1 1 0 1 1 1 1 1 1 1 1 1 1
2 1 3 3 1 1 2 5 4 2 3 5 6 6 6 4 3 4 5 5 6 7 6 5 5 4 3 2 2 1 1 0 1 1 2 2 2 2 1 1 1 1 1 1 1 0 1 1 1
2 3 3 2 2 3 2 5 4 2 0 1 3 4 5 7 8 6 6 6 6 7 7 6 5 4 4 3 2 2 2 2 2 2 2 2 2 2 1 1 1 1 1 1 1 1 1 0 1
3 3 3 1 2 3 3 2 6 3 3 1 3 4 5 5 6 6 7 7 7 7 5 5 5 4 4 4 3 3 2 1 2 1 2 3 2 2 2 1 1 1 1 1 2 1 1 1 0
4 0 2 2 2 2 3 1 7 3 3 3 4 5 5 5 6 7 7 7 6 6 5 5 5 4 3 4 4 3 2 2 1 1 2 2 2 2 2 2 1 1 1 1 2 1 1 1 1
2 5 5 5 4 3 2 1 5 3 4 4 3 5 6 5 6 5 5 5 4 4 4 5 5 4 3 4 3 4 3 2 1 1 1 2 2 2 3 2 1 1 1 2 2 1 1 1 1
4 5 4 5 5 2 2 0 6 6 4 4 4 4 4 5 5 6 6 7 6 6 6 5 5 5 4 4 4 4 4 3 3 2 2 1 2 2 3 2 2 2 2 2 1 1 1 1 1
2 5 6 3 2 3 3 2 6 5 4 1 1 2 3 3 4 5 6 6 6 7 6 6 6 5 5 4 4 3 3 2 2 2 2 2 2 3 3 2 2 2 1 1 1 1 1 1 1
4 2 3 6 2 1 4 5 7 4 5 4 3 2 2 4 4 5 5 5 6 7 7 7 7 6 5 5 4 3 3 3 3 2 2 2 2 2 2 2 2 2 1 1 0 0 1 1 1
3 6 4 5 4 1 4 4 4 5 4 3 2 2 3 2 3 4 4 5 5 4 4 5 6 6 5 5 4 3 3 3 3 2 2 2 2 1 1 2 2 2 1 1 0 1 1 0 1
2 4 5 4 4 4 0 5 5 4 4 4 4 4 4 4 4 4 4 4 4 3 3 4 4 4 4 4 4 3 3 3 2 2 2 2 2 1 1 1 1 1 1 1 1 1 1 1 1
2 3 5 4 1 3 3 7 5 4 5 4 5 4 3 3 3 3 3 3 3 4 4 4 4 5 5 4 4 4 3 3 3 3 2 2 2 1 1 1 1 1 1 1 1 1 1 1 1
Wind_Direction
178 101 86 57 53 43 296 267 230 300 321 348 56 89 103 107 138 158 149 138 132 135 144 147 143 135 129 123 118 113 109 107 104 98 91 84 80 77 73 74 72 67 60 54 52 59 59 57 46
119 105 70 61 79 37 282 265 245 231 169 133 73 80 76 71 83 113 128 145 134 138 142 146 144 138 133 128 122 115 109 105 101 98 94 85 79 72 64 59 51 48 44 37 34 35 31 20 12
121 85 89 77 114 194 250 251 223 280 157 122 72 61 98 133 137 155 164 144 135 141 144 156 149 144 139 133 128 121 114 110 106 98 93 87 75 68 59 53 42 33 23 18 18 13 359 348 347
101 59 61 76 251 234 236 261 182 143 97 77 102 71 48 120 157 161 144 142 141 147 151 166 156 152 148 144 138 130 124 117 104 96 88 78 68 63 53 40 27 17 5 355 350 349 343 337 337
71 80 58 352 274 270 253 250 170 161 132 103 114 114 24 8 120 134 143 149 151 156 160 174 165 162 159 154 146 139 135 128 111 93 86 74 55 39 23 9 3 353 341 339 339 333 330 330 326
69 77 87 271 280 295 292 217 137 125 125 125 133 130 212 115 136 149 152 156 158 157 161 174 175 169 168 164 158 153 148 137 121 81 46 27 10 358 344 336 330 328 328 331 330 328 320 320 321
116 114 165 242 284 305 314 99 135 161 165 177 150 131 197 191 171 151 148 146 145 150 154 168 173 175 177 176 173 167 159 150 132 46 2 358 354 349 336 325 317 319 324 322 325 327 327 321 320
134 117 146 245 253 275 308 28 206 173 206 148 139 153 199 201 156 129 123 123 133 148 164 171 165 143 124 166 199 177 167 145 76 32 9 0 0 352 343 336 324 316 319 325 331 329 331 330 326
108 94 203 224 214 264 318 358 329 195 130 136 184 188 195 144 130 122 119 124 160 179 180 175 174 167 156 198 216 154 131 68 54 27 19 22 14 357 344 344 342 331 329 336 341 336 334 337 340
113 158 221 215 198 255 312 266 254 60 104 149 203 128 124 135 144 153 164 178 189 195 194 184 183 180 169 198 91 50 52 45 47 42 27 22 17 354 9 5 7 6 2 1 2 358 358 3 356
156 195 242 254 224 240 295 298 237 142 214 219 210 180 146 152 161 171 182 187 197 195 192 184 184 175 169 176 134 80 56 38 23 27 30 31 28 7 11 8 3 5 7 8 1 2 2 2 348
157 252 231 269 286 270 253 265 269 204 227 234 199 165 160 169 179 184 188 191 184 178 191 184 171 162 166 160 149 126 102 51 10 359 19 58 33 7 1 5 347 355 353 347 352 348 343 347 339
186 244 252 265 284 242 238 240 243 250 258 252 142 153 175 182 189 192 189 181 173 179 186 180 165 163 157 150 160 128 136 118 16 4 4 81 75 346 345 335 341 340 344 340 337 336 337 338 333
199 221 281 296 278 260 226 265 245 265 225 152 154 173 183 188 188 181 180 181 183 183 180 166 163 163 150 149 147 139 141 121 86 2 351 65 140 161 342 335 337 327 323 314 313 309 315 312 317
159 173 308 274 230 244 156 291 245 256 169 163 182 183 184 195 191 193 190 185 182 175 167 163 165 149 142 147 156 147 145 127 130 328 357 64 139 154 118 341 328 315 311 316 322 322 326 319 322
79 70 313 288 211 228 154 255 264 241 165 189 205 193 192 204 206 203 185 176 170 160 159 166 159 141 144 148 147 134 120 118 118 30 8 355 349 114 76 339 309 306 316 328 323 326 332 322 318
51 130 258 297 267 203 176 247 262 198 183 202 210 199 200 208 212 195 177 168 162 160 155 152 141 143 148 141 123 109 96 90 47 24 359 324 325 18 79 298 297 312 329 329 317 353 309 304 308
203 211 245 266 277 204 238 260 274 225 200 212 213 204 202 206 213 179 166 158 152 149 147 146 138 137 130 110 91 67 58 26 13 352 316 317 322 341 2 309 320 332 338 331 332 322 326 289 295
162 182 244 258 250 219 256 269 272 244 206 211 210 203 204 214 201 154 153 145 140 142 147 152 149 152 138 123 126 116 121 312 329 318 317 324 321 318 317 320 324 330 313 300 309 317 348 340 341
149 218 266 289 287 203 286 285 278 239 214 212 206 203 201 196 177 161 154 153 157 161 163 162 162 164 167 158 150 150 150 219 268 303 318 320 319 309 299 298 301 303 304 321 329 356 3 339 24
220 206 225 254 347 26 356 332 326 319 299 195 201 202 195 191 187 178 168 171 166 172 177 175 172 168 167 144 111 80 55 27 6 341 324 317 316 316 319 300 289 290 280 286 286 234 162 294 326
249 234 202 161 61 339 26 324 307 317 324 243 217 207 205 196 187 182 176 177 182 185 175 168 168 166 165 151 147 144 148 191 238 252 280 304 312 314 308 291 284 277 264 274 276 221 190 178 260
219 34 102 96 122 35 20 61 296 336 315 270 230 216 216 201 189 188 187 186 185 176 170 169 163 167 168 162 163 155 163 204 248 286 302 315 320 317 313 292 285 278 266 271 278 278 200 188 192
129 63 57 50 69 44 329 97 294 294 271 277 237 216 209 201 193 190 179 168 171 166 165 163 165 176 176 170 171 175 182 190 203 280 301 313 316 311 316 306 292 275 263 265 266 261 225 206 197
73 79 40 18 23 287 303 182 261 280 276 253 232 219 206 194 187 185 181 180 180 177 179 175 171 187 185 181 190 195 195 188 200 225 246 278 300 296 301 303 292 278 268 259 255 252 259 216 205
117 127 143 159 202 296 343 295 270 290 307 303 173 171 175 184 188 191 194 190 189 188 185 180 185 194 189 190 201 200 197 192 210 220 223 239 252 266 286 293 294 285 280 277 249 243 259 238 233
115 103 147 124 114 25 324 314 315 346 14 27 46 93 187 198 198 201 197 194 192 192 194 191 189 193 194 196 196 199 201 200 212 222 225 244 260 272 294 300 311 313 314 319 305 276 276 270 251
105 138 95 94 113 36 333 327 296 318 330 340 338 282 251 222 207 204 201 202 201 202 199 189 189 195 195 192 196 197 202 207 207 201 229 252 270 290 308 318 321 325 330 330 331 305 294 307 298
82 81 92 94 128 134 21 286 244 255 277 279 269 259 245 235 222 212 207 201 191 183 184 190 192 192 192 195 197 195 199 199 195 204 226 238 259 279 289 295 309 323 335 341 355 329 333 333 331
128 137 136 125 160 138 148 269 282 276 280 274 274 271 261 247 234 208 198 185 184 192 193 195 195 198 201 193 189 197 194 187 198 217 229 231 250 269 280 300 321 324 330 338 354 323 338 323 327